Torna al catalogo

CZ-6A DEB

AttivoPO
NORAD 56680·DEBRIS·🇨🇳 China

Lanciato Nov 11, 2022 da Taiyuan Satellite Launch Center

Loading…

Prossimi Passaggi (prossime 24 ore)

TLE

AggiornatoSource: Space-Track

Epoca: Sep 14, 2026, 02:47 UTC

1 56680U 22151AHG 26257.11629906  .00005765  00000-0  10364-2 0  9991
2 56680  98.6098 322.6497 0078361  18.3492 342.0509 14.65070797183957

Traccia CZ-6A DEB in tempo reale con AllMySat

Download on the App Store